Tracking 27107 objects as of 21-Mar-2023
HD Live streaming from Space Station
objects crossing your sky now

STARLINK-4038

Track STARLINK-4038 now!
10-day predictions
STARLINK-4038 is classified as:


NORAD ID: 53150
Int'l Code: 2022-083U
Perigee: 545.5 km
Apogee: 547.8 km
Inclination: 53.2 °
Period: 95.4 minutes
Semi major axis: 6917 km
RCS: Unknown
Launch date: July 17, 2022
Source: United States (US)
Launch site: AIR FORCE EASTERN TEST RANGE (AFETR)
Your satellite tracking list
Your tracking list is empty




NASA's NSSDC Master Catalog

Two Line Element Set (TLE):
1 53150U 22083U   23080.19681715  .00044103  00000-0  27665-2 0  9990
2 53150  53.2178 352.5977 0001704  60.5039 299.6123 15.08911045 38260
Source of the keplerian elements: AFSPC